1514635200.39,63316,5.63,72270.3,-9.41,-11.51,-11.41,0,*5C
1514635201.65,63317,5.63,72270.8,-9.43,-11.55,-11.37,0,*5A
1514635202.9,63318,5.63,72270.0,-9.43,-11.55,-11.41,0,*54
1514635204.19,63319,5.63,72266.5,-9.41,-11.55,-11.51,0,*56
1514635205.46,63320,5.63,72270.0,-9.43,-11.67,-11.51,0,*5F
1514635206.73,63321,5.63,72268.5,-9.43,-11.67,-11.55,0,*5A
1514635208.0,63322,5.63,72270.8,-9.43,-11.67,-11.55,0,*59
1514635209.27,63323,5.63,72274.0,-9.43,-11.77,-11.55,0,*59
1514635210.53,63324,5.63,72270.5,-9.43,-11.81,-11.55,0,*57
1514635211.8,63325,5.63,72270.0,-9.43,-11.81,-11.67,0,*57
1514635213.07,63326,5.63,72272.3,-9.43,-11.89,-11.67,0,*5C
1514635214.33,63327,5.63,72264.5,-9.43,-11.89,-11.77,0,*5C
1514635215.6,63328,5.63,72268.5,-9.43,-11.93,-11.77,0,*58
1514635216.89,63329,5.63,72270.8,-9.45,-11.97,-11.81,0,*52
1514635218.18,63330,5.63,72270.3,-9.41,-11.89,-11.77,0,*58
1514635219.45,63331,5.63,72270.0,-9.43,-11.93,-11.67,0,*51
1514635220.72,63332,5.63,72270.3,-9.43,-11.89,-11.67,0,*59
1514635221.98,63333,5.63,72272.8,-9.43,-11.89,-11.77,0,*59
1514635223.28,63334,5.63,72272.5,-9.41,-11.93,-11.77,0,*57
1514635224.55,63335,5.63,72276.5,-9.43,-11.93,-11.77,0,*54
1514635225.82,63336,5.63,72272.8,-9.43,-11.93,-11.81,0,*5E
1514635227.09,63337,5.63,72272.0,-9.43,-11.93,-11.81,0,*5F
1514635228.36,63338,5.63,72278.0,-9.43,-11.93,-11.81,0,*50
1514635229.65,63339,5.63,72276.5,-9.41,-11.89,-11.81,0,*58
1514635230.93,63340,5.63,72272.8,-9.43,-11.93,-11.89,0,*57
1514635232.2,63341,5.63,72274.8,-9.43,-11.93,-11.93,0,*5D
1514635233.47,63342,5.63,72274.8,-9.43,-11.93,-11.81,0,*5D
1514635234.74,63343,5.63,72268.8,-9.43,-11.89,-11.81,0,*57
1514635236.01,63344,5.63,72274.0,-9.43,-11.93,-11.77,0,*52
1514635237.28,63345,5.63,72272.8,-9.43,-11.93,-11.77,0,*53
1514635238.57,63346,5.63,72274.0,-9.45,-11.93,-11.85,0,*5B
1514635239.84,63347,5.63,72270.8,-9.43,-11.89,-11.81,0,*53
1514635241.1,63348,5.63,72274.3,-9.43,-11.89,-11.77,0,*55
1514635242.36,63349,5.63,72272.5,-9.43,-11.81,-11.67,0,*5D
1514635243.63,63350,5.63,72268.5,-9.43,-11.81,-11.63,0,*51
1514635244.91,63351,5.63,72268.0,-9.43,-11.67,-11.63,0,*58
1514635246.18,63352,5.63,72270.5,-9.43,-11.67,-11.55,0,*5E
1514635247.45,63353,5.63,72270.3,-9.43,-11.67,-11.55,0,*5F
1514635248.74,63354,5.63,72270.3,-9.41,-11.77,-11.55,0,*5B
1514635250.01,63355,5.63,72268.5,-9.43,-11.67,-11.55,0,*59
1514635251.26,63356,5.63,72268.8,-9.43,-11.63,-11.41,0,*5B
1514635252.55,63357,5.63,72274.3,-9.41,-11.67,-11.51,0,*5D
1514635253.82,63358,5.63,72274.3,-9.43,-11.67,-11.51,0,*50
1514635255.12,63359,5.63,72272.0,-9.41,-11.67,-11.55,0,*57
1514635256.41,63360,5.63,72270.0,-9.41,-11.77,-11.67,0,*5D
1514635257.71,63361,5.63,72272.8,-9.41,-11.77,-11.63,0,*58
1514635259.0,63362,5.63,72272.3,-9.41,-11.81,-11.67,0,*56
1514635260.28,63363,5.63,72274.0,-9.43,-11.77,-11.63,0,*58
1514635261.57,63364,5.63,72274.0,-9.41,-11.77,-11.67,0,*59
1514635262.87,63365,5.63,72272.3,-9.41,-11.81,-11.63,0,*55
1514635264.13,63366,5.63,72272.0,-9.43,-11.89,-11.67,0,*58
1514635265.43,63367,5.63,72278.0,-9.41,-11.93,-11.77,0,*51
1514635266.7,63368,5.63,72280.3,-9.43,-11.93,-11.77,0,*5C
1514635268.0,63369,5.63,72276.3,-9.41,-11.93,-11.81,0,*56
1514635269.27,63370,5.63,72278.8,-9.41,-12.03,-11.93,0,*57
1514635270.57,63371,5.63,72276.8,-9.41,-12.07,-11.93,0,*52
1514635271.87,63372,5.63,72276.3,-9.41,-12.07,-11.93,0,*51
1514635273.12,63373,5.63,72274.0,-9.43,-12.21,-12.07,0,*58
1514635274.36,63374,5.63,72272.0,-9.43,-12.25,-12.07,0,*5B
1514635275.61,63375,5.63,72276.8,-9.43,-12.35,-12.21,0,*5F
1514635276.86,63376,5.63,72274.5,-9.43,-12.25,-12.07,0,*59
1514635278.08,63377,5.63,72276.8,-9.43,-12.21,-12.03,0,*58
1514635279.33,63378,5.63,72276.5,-9.43,-12.21,-12.07,0,*53
1514635280.58,63379,5.63,72278.0,-9.43,-12.11,-12.03,0,*55
1514635281.83,63380,5.63,72278.8,-9.43,-12.21,-12.07,0,*54
1514635283.08,63381,5.63,72280.0,-9.43,-12.21,-12.07,0,*55
1514635284.32,63382,5.63,72280.0,-9.43,-12.11,-12.03,0,*51
1514635285.57,63383,5.63,72276.0,-9.43,-12.11,-12.03,0,*50
1514635286.81,63384,5.63,72278.3,-9.43,-12.03,-11.89,0,*55
1514635288.1,63385,5.63,72278.0,-9.45,-12.07,-11.97,0,*59
1514635289.39,63386,5.63,72274.5,-9.45,-12.11,-11.97,0,*5D
1514635290.69,63387,5.63,72274.3,-9.45,-12.15,-11.97,0,*58
1514635291.98,63388,5.63,72272.5,-9.45,-12.11,-11.93,0,*57
1514635293.27,63389,5.63,72274.0,-9.45,-12.11,-12.07,0,*58
1514635294.57,63390,5.63,72276.0,-9.45,-12.11,-12.07,0,*50
1514635295.86,63391,5.63,72278.0,-9.45,-12.15,-12.07,0,*55
1514635297.14,63392,5.63,72282.8,-9.49,-12.15,-12.07,0,*5A
1514635298.43,63393,5.63,72272.8,-9.45,-12.11,-12.07,0,*53
1514635299.71,63394,5.63,72272.5,-9.49,-12.15,-12.11,0,*5B
1514635301.01,63395,5.63,72270.8,-9.45,-12.15,-12.11,0,*56
1514635302.26,63396,5.63,72272.5,-9.49,-12.39,-12.15,0,*53
1514635303.52,63397,5.63,72272.0,-9.45,-12.29,-12.11,0,*5B
1514635304.79,63398,5.63,72274.3,-9.45,-12.29,-12.11,0,*54
1514635306.05,63399,5.63,72272.8,-9.49,-12.25,-12.15,0,*51
1514635307.33,63400,5.63,72278.8,-9.49,-12.15,-12.07,0,*56
1514635308.59,63401,5.63,72274.3,-9.49,-12.25,-12.07,0,*54
1514635309.84,63402,5.63,72274.5,-9.49,-12.25,-12.07,0,*57
1514635311.11,63403,5.63,72274.8,-9.45,-12.25,-12.11,0,*5D
1514635312.39,63404,5.63,72276.8,-9.45,-12.25,-12.11,0,*5A
1514635313.64,63405,5.63,72274.0,-9.49,-12.25,-12.07,0,*50
1514635314.94,63406,5.63,72274.8,-9.45,-12.15,-12.07,0,*5C
1514635316.21,63407,5.63,72272.3,-9.49,-12.11,-11.97,0,*5F
1514635317.51,63408,5.63,72272.8,-9.45,-11.93,-11.81,0,*52
1514635318.79,63409,5.63,72276.5,-9.49,-11.93,-11.73,0,*52
1514635320.06,63410,5.63,72274.3,-9.49,-11.81,-11.67,0,*5C
1514635321.36,63411,5.63,72278.3,-9.45,-11.67,-11.55,0,*58
1514635322.65,63412,5.63,72272.3,-9.45,-11.59,-11.55,0,*56
1514635323.92,63413,5.63,72278.5,-9.45,-11.59,-11.41,0,*52
1514635325.22,63414,5.63,72278.0,-9.45,-11.59,-11.55,0,*50
1514635326.51,63415,5.63,72276.3,-9.45,-11.73,-11.55,0,*59
1514635327.79,63416,5.63,72272.3,-9.45,-11.73,-11.59,0,*56
1514635329.08,63417,5.63,72272.8,-9.45,-11.81,-11.67,0,*57
1514635330.35,63418,5.63,72270.5,-9.43,-11.77,-11.63,0,*53
1514635331.64,63419,5.63,72274.3,-9.45,-11.81,-11.73,0,*5C
1514635332.92,63420,5.63,72274.8,-9.45,-11.81,-11.73,0,*56
1514635334.21,63421,5.63,72278.3,-9.45,-11.85,-11.73,0,*53
1514635335.51,63422,5.63,72272.8,-9.45,-11.85,-11.67,0,*55
1514635336.79,63423,5.63,72274.5,-9.45,-11.81,-11.73,0,*55
1514635338.08,63424,5.63,72274.3,-9.45,-11.85,-11.73,0,*56
1514635339.37,63425,5.63,72274.3,-9.45,-11.85,-11.67,0,*52
1514635340.66,63426,5.63,72276.5,-9.45,-11.85,-11.67,0,*51
1514635341.93,63427,5.63,72276.3,-9.43,-11.81,-11.63,0,*56
1514635343.2,63428,5.63,72276.5,-9.43,-11.89,-11.67,0,*55
1514635344.47,63429,5.63,72274.8,-9.43,-11.89,-11.67,0,*54
1514635345.74,63430,5.63,72274.3,-9.43,-11.89,-11.77,0,*5D
1514635347.0,63431,5.63,72272.8,-9.43,-11.89,-11.81,0,*55
1514635348.29,63432,5.63,72274.3,-9.45,-11.93,-11.81,0,*5B
1514635349.58,63433,5.63,72274.3,-9.45,-11.93,-11.81,0,*5A
1514635350.87,63434,5.63,72272.0,-9.45,-11.97,-11.81,0,*59
1514635352.16,63435,5.63,72274.3,-9.45,-11.93,-11.81,0,*5C
1514635353.46,63436,5.63,72276.8,-9.41,-11.93,-11.81,0,*5B
1514635354.73,63437,5.63,72276.0,-9.43,-11.93,-11.81,0,*58
1514635356.0,63438,5.63,72274.5,-9.43,-11.93,-11.89,0,*5F
1514635357.27,63439,5.63,72276.3,-9.43,-11.89,-11.77,0,*54
1514635358.54,63440,5.63,72276.8,-9.43,-11.93,-11.77,0,*51
1514635359.83,63441,5.63,72276.5,-9.45,-11.93,-11.81,0,*5F
1514635361.13,63442,5.63,72276.3,-9.45,-11.93,-11.81,0,*5C
1514635362.39,63443,5.63,72274.8,-9.43,-11.89,-11.81,0,*50
1514635363.65,63444,5.63,72276.5,-9.43,-11.89,-11.81,0,*57
1514635364.93,63445,5.63,72276.0,-9.43,-11.93,-11.89,0,*55
1514635366.22,63446,5.63,72274.8,-9.45,-11.97,-11.85,0,*58
1514635367.51,63447,5.63,72278.5,-9.45,-11.97,-11.85,0,*59
1514635368.78,63448,5.63,72276.0,-9.43,-11.93,-11.81,0,*50
1514635370.05,63449,5.63,72276.5,-9.43,-11.93,-11.81,0,*51
1514635371.32,63450,5.63,72278.3,-9.43,-11.93,-11.81,0,*59
1514635372.61,63451,5.63,72278.3,-9.45,-11.97,-11.85,0,*5E
1514635373.87,63452,5.63,72276.5,-9.43,-11.89,-11.81,0,*50
1514635375.14,63453,5.63,72276.3,-9.43,-11.89,-11.67,0,*59
1514635376.41,63454,5.63,72276.8,-9.43,-11.89,-11.67,0,*5E
1514635377.67,63455,5.63,72282.5,-9.43,-11.81,-11.63,0,*53
1514635378.95,63456,5.63,72282.8,-9.43,-11.77,-11.63,0,*59
1514635380.25,63457,5.63,72276.8,-9.41,-11.77,-11.63,0,*5A
1514635381.51,63458,5.63,72276.3,-9.43,-11.77,-11.67,0,*53
1514635382.78,63459,5.63,72278.5,-9.43,-11.89,-11.77,0,*52
1514635384.05,63460,5.63,72278.8,-9.43,-11.93,-11.77,0,*53
1514635385.34,63461,5.63,72280.0,-9.45,-11.97,-11.81,0,*59
1514635386.63,63462,5.63,72280.0,-9.45,-11.97,-11.85,0,*5E
1514635387.9,63463,5.63,72280.0,-9.43,-11.93,-11.77,0,*50
1514635389.17,63464,5.63,72282.3,-9.43,-11.93,-11.77,0,*57
1514635390.44,63465,5.63,72280.8,-9.43,-11.93,-11.77,0,*56
1514635391.71,63466,5.63,72278.8,-9.43,-11.93,-11.81,0,*5C
1514635392.97,63467,5.63,72282.3,-9.43,-11.93,-11.81,0,*5D
1514635394.28,63468,5.63,72282.8,-9.41,-11.93,-11.89,0,*58
1514635395.55,63469,5.63,72276.0,-9.43,-11.89,-11.89,0,*50
1514635396.82,63470,5.63,72280.8,-9.43,-11.93,-11.89,0,*53
1514635398.1,63471,5.63,72284.8,-9.43,-11.93,-11.89,0,*52
1514635399.38,63472,5.63,72278.5,-9.43,-11.93,-11.89,0,*51
1514635400.65,63473,5.63,72280.8,-9.43,-11.93,-11.89,0,*50
1514635401.92,63474,5.63,72282.0,-9.43,-12.07,-11.89,0,*59
1514635403.2,63475,5.63,72280.5,-9.43,-12.07,-11.93,0,*53
1514635404.44,63476,5.63,72278.8,-9.43,-12.11,-12.03,0,*5D
1514635405.69,63477,5.63,72280.0,-9.43,-12.11,-12.03,0,*5C
1514635406.93,63478,5.63,72280.0,-9.43,-12.03,-11.93,0,*5A
1514635408.17,63479,5.63,72276.8,-9.43,-12.03,-11.89,0,*50
1514635409.45,63480,5.63,72280.5,-9.43,-11.93,-11.89,0,*5C
1514635410.72,63481,5.63,72280.3,-9.43,-11.93,-11.81,0,*55
1514635411.99,63482,5.63,72278.8,-9.43,-11.93,-11.81,0,*56
1514635413.28,63483,5.63,72282.3,-9.45,-11.97,-11.97,0,*52
1514635414.57,63484,5.69,72284.8,-9.45,-11.97,-11.93,0,*51
1514635415.84,63485,5.63,72286.3,-9.43,-11.93,-11.77,0,*58
1514635417.11,63486,5.63,72282.5,-9.43,-11.81,-11.63,0,*5D
1514635418.4,63487,5.63,72276.8,-9.41,-11.77,-11.55,0,*52
1514635419.67,63488,5.63,72280.3,-9.43,-11.67,-11.55,0,*5E
1514635420.95,63489,5.69,72282.3,-9.43,-11.67,-11.55,0,*5F
1514635422.21,63490,5.63,72280.3,-9.43,-11.67,-11.55,0,*57
1514635423.49,63491,5.63,72282.3,-9.43,-11.67,-11.63,0,*53
1514635424.78,63492,5.63,72276.0,-9.41,-11.77,-11.55,0,*56
1514635426.05,63493,5.63,72278.5,-9.43,-11.77,-11.55,0,*55
1514635427.32,63494,5.63,72278.3,-9.43,-11.63,-11.55,0,*57
1514635428.59,63495,5.63,72282.0,-9.43,-11.67,-11.51,0,*56
1514635429.86,63496,5.63,72276.5,-9.43,-11.67,-11.55,0,*51
1514635431.16,63497,5.63,72276.8,-9.41,-11.67,-11.55,0,*52
1514635432.43,63498,5.63,72278.5,-9.43,-11.63,-11.55,0,*5B
1514635433.73,63499,5.63,72282.5,-9.41,-11.67,-11.55,0,*5C
1514635435.02,63500,5.63,72282.5,-9.41,-11.67,-11.51,0,*59
1514635436.32,63501,5.63,72280.0,-9.41,-11.67,-11.55,0,*5C
1514635437.62,63502,5.63,72280.3,-9.41,-11.67,-11.63,0,*5A
1514635438.88,63503,5.63,72282.0,-9.43,-11.67,-11.51,0,*58
1514635440.16,63504,5.63,72282.3,-9.43,-11.63,-11.63,0,*5A
1514635441.46,63505,5.63,72280.8,-9.41,-11.63,-11.55,0,*5C
1514635442.72,63506,5.63,72280.8,-9.43,-11.67,-11.51,0,*5D
1514635444.02,63507,5.63,72280.5,-9.41,-11.63,-11.51,0,*5A
1514635445.32,63508,5.69,72286.8,-9.41,-11.63,-11.55,0,*51
1514635446.61,63509,5.63,72286.3,-9.41,-11.77,-11.63,0,*50
1514635447.91,63510,5.69,72282.0,-9.41,-11.81,-11.63,0,*51
1514635449.18,63511,5.69,72284.8,-9.43,-11.81,-11.63,0,*52
1514635450.47,63512,5.63,72280.5,-9.41,-11.81,-11.77,0,*56
1514635451.76,63513,5.63,72280.3,-9.41,-11.89,-11.77,0,*5F
1514635453.05,63514,5.63,72280.8,-9.41,-11.89,-11.81,0,*51
1514635454.34,63515,5.63,72280.5,-9.41,-11.89,-11.67,0,*58
1514635455.64,63516,5.63,72278.5,-9.41,-11.89,-11.63,0,*5F
1514635456.92,63517,5.63,72282.8,-9.43,-11.77,-11.63,0,*5D
1514635458.21,63518,5.63,72282.3,-9.41,-11.77,-11.63,0,*50
1514635459.51,63519,5.69,72282.8,-9.41,-11.67,-11.63,0,*50
1514635460.78,63520,5.63,72284.5,-9.39,-11.63,-11.51,0,*50
1514635462.04,63521,5.63,72282.3,-9.39,-11.63,-11.51,0,*51
1514635463.34,63522,5.69,72282.3,-9.41,-11.77,-11.55,0,*5C
1514635464.64,63523,5.69,72282.3,-9.41,-11.63,-11.63,0,*5D
1514635465.94,63524,5.63,72282.5,-9.41,-11.67,-11.55,0,*5B
1514635467.23,63525,5.63,72278.3,-9.41,-11.63,-11.51,0,*5A
1514635468.53,63526,5.63,72276.3,-9.41,-11.63,-11.51,0,*59
1514635469.78,63527,5.63,72278.8,-9.39,-11.73,-11.59,0,*5E
1514635471.05,63528,5.63,72280.0,-9.39,-11.77,-11.63,0,*5C
1514635472.31,63529,5.63,72280.8,-9.39,-11.89,-11.77,0,*59
1514635473.57,63530,5.69,72284.5,-9.39,-11.89,-11.77,0,*51
1514635474.84,63531,5.63,72278.5,-9.39,-11.89,-11.77,0,*50
1514635476.11,63532,5.63,72280.5,-9.43,-11.93,-11.81,0,*5C
1514635477.4,63533,5.63,72282.5,-9.41,-11.93,-11.81,0,*5F
1514635478.69,63534,5.63,72278.5,-9.41,-11.89,-11.77,0,*5A
1514635479.96,63535,5.63,72276.3,-9.39,-11.89,-11.73,0,*50
1514635481.22,63536,5.63,72272.8,-9.39,-11.89,-11.73,0,*53
1514635482.49,63537,5.63,72274.5,-9.39,-11.77,-11.63,0,*52
1514635483.75,63538,5.63,72276.0,-9.39,-11.77,-11.63,0,*5D
1514635485.02,63539,5.63,72278.5,-9.39,-11.77,-11.73,0,*5D
1514635486.28,63540,5.63,72278.0,-9.39,-11.85,-11.77,0,*5A
1514635487.54,63541,5.69,72282.5,-9.39,-11.89,-11.77,0,*57
1514635488.8,63542,5.63,72276.5,-9.39,-11.85,-11.73,0,*5C
1514635490.1,63543,5.63,72276.8,-9.41,-11.89,-11.63,0,*5F
1514635491.37,63544,5.63,72280.0,-9.39,-11.77,-11.63,0,*56
1514635492.64,63545,5.63,72278.5,-9.39,-11.77,-11.63,0,*57
1514635493.91,63546,5.69,72278.8,-9.39,-11.77,-11.63,0,*54
1514635495.17,63547,5.63,72280.5,-9.39,-11.73,-11.63,0,*51
1514635496.43,63548,5.63,72278.3,-9.39,-11.73,-11.59,0,*57
1514635497.69,63549,5.63,72276.3,-9.39,-11.77,-11.59,0,*52
1514635498.96,63550,5.63,72276.0,-9.39,-11.73,-11.63,0,*57
1514635500.25,63551,5.63,72278.8,-9.37,-11.77,-11.77,0,*59
1514635501.54,63552,5.63,72280.0,-9.37,-11.77,-11.77,0,*5A
1514635502.8,63553,5.63,72280.3,-9.39,-11.89,-11.73,0,*50
1514635504.06,63554,5.63,72278.3,-9.39,-11.85,-11.77,0,*5F
1514635505.32,63555,5.63,72280.0,-9.39,-11.85,-11.73,0,*5A
1514635506.61,63556,5.63,72282.8,-9.37,-11.89,-11.73,0,*5B
1514635507.88,63557,5.63,72280.0,-9.39,-11.89,-11.77,0,*50
1514635509.14,63558,5.69,72280.0,-9.39,-11.89,-11.77,0,*5F
1514635510.4,63559,5.63,72278.3,-9.39,-11.85,-11.77,0,*52
1514635511.66,63560,5.63,72278.5,-9.39,-11.89,-11.77,0,*54
1514635512.92,63561,5.63,72276.5,-9.39,-11.97,-11.89,0,*5B
1514635514.22,63562,5.63,72276.8,-9.37,-11.97,-11.85,0,*5A
1514635515.48,63563,5.69,72282.3,-9.39,-11.97,-11.85,0,*55
1514635516.74,63564,5.63,72278.8,-9.39,-11.89,-11.77,0,*50
1514635518.0,63565,5.63,72280.0,-9.39,-11.85,-11.73,0,*59
1514635519.3,63566,5.69,72282.5,-9.37,-11.77,-11.63,0,*58
1514635520.57,63567,5.63,72282.5,-9.39,-11.77,-11.63,0,*57
1514635521.83,63568,5.63,72276.8,-9.39,-11.73,-11.63,0,*5C
1514635523.12,63569,5.63,72276.3,-9.37,-11.77,-11.59,0,*5E
1514635524.39,63570,5.69,72280.0,-9.39,-11.77,-11.59,0,*58
1514635525.65,63571,5.63,72278.8,-9.39,-11.73,-11.59,0,*5D
1514635526.91,63572,5.63,72280.8,-9.39,-11.73,-11.63,0,*57
1514635528.18,63573,5.63,72278.8,-9.39,-11.77,-11.63,0,*52
1514635529.44,63574,5.69,72280.0,-9.39,-11.63,-11.59,0,*59
1514635530.71,63575,5.69,72286.0,-9.39,-11.73,-11.63,0,*50
1514635531.97,63576,5.69,72284.0,-9.39,-11.73,-11.59,0,*5A
1514635533.23,63577,5.63,72282.0,-9.39,-11.63,-11.59,0,*5A
1514635534.48,63578,5.63,72280.5,-9.39,-11.63,-11.45,0,*58
1514635535.74,63579,5.63,72278.8,-9.39,-11.63,-11.51,0,*5C
1514635537.01,63580,5.63,72276.8,-9.39,-11.77,-11.63,0,*5E
1514635538.31,63581,5.63,72278.0,-9.37,-11.89,-11.63,0,*50
1514635539.6,63582,5.69,72278.0,-9.37,-11.89,-11.85,0,*5B
1514635540.87,63583,5.69,72278.0,-9.39,-11.89,-11.89,0,*58
1514635542.13,63584,5.63,72276.3,-9.39,-11.89,-11.85,0,*53
1514635543.43,63585,5.63,72274.0,-9.37,-11.89,-11.89,0,*50
1514635544.69,63586,5.63,72274.5,-9.39,-11.89,-11.77,0,*5C
1514635545.98,63587,5.63,72272.8,-9.37,-11.77,-11.77,0,*52
1514635547.24,63588,5.63,72272.5,-9.39,-11.85,-11.73,0,*5A
1514635548.54,63589,5.69,72274.3,-9.37,-11.77,-11.63,0,*59
1514635549.8,63590,5.63,72268.0,-9.39,-11.73,-11.59,0,*52
1514635551.08,63591,5.63,72270.3,-9.37,-11.73,-11.59,0,*5D
1514635552.38,63592,5.63,72270.3,-9.37,-11.63,-11.51,0,*57
1514635553.67,63593,5.63,72270.3,-9.37,-11.59,-11.51,0,*5F
1514635554.94,63594,5.63,72266.8,-9.39,-11.63,-11.51,0,*5F
1514635556.23,63595,5.63,72268.0,-9.37,-11.59,-11.51,0,*59
1514635557.5,63596,5.63,72270.0,-9.37,-11.59,-11.45,0,*5F
1514635558.77,63597,5.63,72268.8,-9.37,-11.59,-11.45,0,*5E
1514635560.04,63598,5.63,72266.3,-9.37,-11.59,-11.45,0,*51
1514635561.31,63599,5.69,72268.3,-9.37,-11.59,-11.45,0,*50
1514635562.6,63600,5.63,72266.3,-9.37,-11.59,-11.37,0,*56
1514635563.86,63601,5.63,72270.3,-9.39,-11.51,-11.37,0,*51
1514635565.15,63602,5.69,72274.3,-9.37,-11.51,-11.37,0,*5C
1514635566.39,63603,5.63,72274.5,-9.35,-11.55,-11.45,0,*5E
1514635567.64,63604,5.63,72276.3,-9.35,-11.59,-11.45,0,*55
1514635568.93,63605,5.63,72272.5,-9.37,-11.73,-11.51,0,*5B
1514635570.22,63606,5.63,72274.8,-9.37,-11.77,-11.63,0,*5D
1514635571.49,63607,5.63,72274.3,-9.35,-11.73,-11.73,0,*5B
1514635572.75,63608,5.63,72278.0,-9.35,-11.81,-11.73,0,*59
1514635574.01,63609,5.63,72274.0,-9.35,-11.81,-11.67,0,*5D
1514635575.28,63610,5.63,72272.5,-9.35,-11.81,-11.67,0,*55
1514635576.54,63611,5.63,72268.8,-9.35,-11.85,-11.67,0,*50
1514635577.83,63612,5.69,72274.0,-9.37,-11.89,-11.77,0,*5C
1514635579.13,63613,5.69,72276.3,-9.37,-11.89,-11.85,0,*50
1514635580.39,63614,5.63,72272.0,-9.35,-11.85,-11.85,0,*59
1514635581.66,63615,5.69,72272.8,-9.35,-11.93,-11.85,0,*5F
1514635582.93,63616,5.63,72274.5,-9.35,-11.93,-11.81,0,*58
1514635584.21,63617,5.63,72272.0,-9.35,-11.93,-11.85,0,*5D
1514635585.5,63618,5.63,72274.5,-9.37,-11.97,-11.85,0,*54
1514635586.79,63619,5.69,72274.8,-9.37,-11.97,-11.85,0,*55
1514635588.08,63620,5.69,72276.5,-9.37,-11.97,-11.89,0,*53
1514635589.38,63621,5.63,72272.3,-9.37,-11.97,-11.85,0,*5E
1514635590.67,63622,5.69,72278.5,-9.37,-11.97,-11.89,0,*51
1514635591.96,63623,5.69,72278.0,-9.37,-11.85,-11.85,0,*5F
1514635593.25,63624,5.63,72276.8,-9.37,-11.85,-11.77,0,*55
1514635594.52,63625,5.69,72280.8,-9.35,-11.85,-11.73,0,*52
1514635595.78,63626,5.69,72278.8,-9.35,-11.85,-11.73,0,*51
1514635597.05,63627,5.63,72276.0,-9.35,-11.85,-11.73,0,*50
1514635598.32,63628,5.63,72274.0,-9.35,-11.85,-11.85,0,*56
1514635599.58,63629,5.69,72278.8,-9.37,-12.03,-11.97,0,*5B
1514635600.85,63630,5.63,72272.8,-9.37,-12.03,-11.97,0,*53
1514635602.14,63631,5.69,72272.8,-9.37,-12.07,-11.97,0,*56
1514635603.38,63632,5.69,72274.5,-9.37,-12.03,-12.03,0,*5F
1514635604.68,63633,5.69,72274.5,-9.37,-12.15,-11.97,0,*57
1514635605.97,63634,5.69,72276.3,-9.37,-12.07,-11.97,0,*53
1514635607.26,63635,5.63,72272.8,-9.37,-12.07,-11.97,0,*52
1514635608.53,63636,5.69,72272.5,-9.37,-12.03,-11.97,0,*55
1514635609.77,63637,5.63,72274.8,-9.39,-12.03,-11.89,0,*55
1514635611.06,63638,5.63,72274.0,-9.37,-11.97,-11.89,0,*5A
1514635612.36,63639,5.63,72272.3,-9.37,-11.97,-11.89,0,*5B
1514635613.63,63640,5.63,72272.3,-9.39,-11.97,-11.89,0,*5B
1514635614.92,63641,5.63,72274.0,-9.37,-11.97,-11.85,0,*58
1514635616.21,63642,5.69,72278.3,-9.37,-11.89,-11.77,0,*59
1514635617.5,63643,5.63,72276.8,-9.37,-11.85,-11.73,0,*50
1514635618.79,63644,5.63,72276.8,-9.37,-11.73,-11.63,0,*5F
1514635620.09,63645,5.69,72282.0,-9.37,-11.73,-11.63,0,*5E
1514635621.35,63646,5.63,72276.3,-9.39,-11.77,-11.59,0,*5E
1514635622.62,63647,5.69,72280.8,-9.39,-11.77,-11.63,0,*56
1514635623.91,63648,5.69,72276.8,-9.37,-11.77,-11.77,0,*52
1514635625.2,63649,5.69,72278.3,-9.37,-11.89,-11.73,0,*56
1514635626.5,63650,5.69,72276.5,-9.37,-11.89,-11.85,0,*57
1514635627.79,63651,5.63,72276.3,-9.37,-11.89,-11.89,0,*5A
1514635629.08,63652,5.63,72278.3,-9.37,-11.97,-11.85,0,*5A
1514635630.35,63653,5.63,72276.3,-9.37,-12.03,-11.97,0,*56
1514635631.62,63654,5.69,72280.8,-9.37,-12.07,-12.03,0,*5B
1514635632.89,63655,5.69,72278.0,-9.37,-12.15,-12.03,0,*59
1514635634.19,63656,5.69,72276.8,-9.37,-12.15,-12.07,0,*5E
1514635635.45,63657,5.69,72282.0,-9.39,-12.15,-11.97,0,*5B
1514635636.71,63658,5.69,72278.5,-9.39,-12.15,-12.15,0,*5D
1514635637.99,63659,5.69,72276.0,-9.37,-12.21,-12.15,0,*55
1514635639.26,63660,5.63,72274.3,-9.37,-12.29,-12.07,0,*54
1514635640.5,63661,5.69,72276.0,-9.39,-12.21,-12.15,0,*50
1514635641.77,63662,5.69,72278.3,-9.37,-12.21,-12.15,0,*5D
1514635643.05,63663,5.69,72278.3,-9.37,-12.21,-12.15,0,*5C
1514635644.26,63664,5.69,72274.8,-9.39,-12.43,-12.29,0,*5E
1514635645.47,63665,5.69,72278.5,-9.39,-12.43,-12.29,0,*5F
1514635646.69,63666,5.63,72276.3,-9.39,-12.43,-12.29,0,*5C
1514635647.93,63667,5.69,72276.0,-9.39,-12.43,-12.35,0,*50
1514635649.16,63668,5.63,72274.5,-9.39,-12.61,-12.47,0,*5A
1514635650.43,63669,5.69,72280.3,-9.39,-12.71,-12.61,0,*5E
1514635651.69,63670,5.69,72278.8,-9.39,-12.75,-12.61,0,*52
1514635652.95,63671,5.69,72282.0,-9.39,-12.61,-12.61,0,*56
1514635654.19,63672,5.63,72278.5,-9.39,-12.61,-12.47,0,*51
1514635655.4,63673,5.69,72282.0,-9.39,-12.47,-12.43,0,*50
1514635656.64,63674,5.63,72276.3,-9.39,-12.57,-12.43,0,*56
1514635657.88,63675,5.69,72280.3,-9.41,-12.39,-12.39,0,*5D
1514635659.13,63676,5.63,72280.5,-9.43,-12.39,-12.35,0,*50
1514635660.4,63677,5.69,72280.0,-9.41,-12.47,-12.35,0,*5A
1514635661.67,63678,5.69,72286.3,-9.41,-12.47,-12.35,0,*55
1514635662.95,63679,5.69,72286.3,-9.41,-12.53,-12.47,0,*54
1514635664.19,63680,5.69,72282.8,-9.43,-12.61,-12.47,0,*51
1514635665.43,63681,5.69,72284.8,-9.43,-12.53,-12.39,0,*58
1514635666.7,63682,5.69,72280.8,-9.41,-12.39,-12.35,0,*59
1514635667.95,63683,5.69,72278.0,-9.43,-12.39,-12.35,0,*5A
1514635669.22,63684,5.69,72278.0,-9.41,-12.35,-12.25,0,*52
1514635670.46,63685,5.69,72278.8,-9.41,-12.39,-12.21,0,*5B
1514635671.69,63686,5.63,72272.5,-9.43,-12.25,-12.21,0,*57
1514635672.96,63687,5.69,72278.0,-9.41,-12.25,-12.11,0,*57
1514635674.23,63688,5.69,72278.3,-9.43,-12.11,-12.07,0,*5A
1514635675.47,63689,5.69,72278.0,-9.43,-12.11,-12.03,0,*5F
1514635676.74,63690,5.69,72278.5,-9.43,-12.11,-12.07,0,*53
1514635677.99,63691,5.69,72276.3,-9.43,-12.21,-12.07,0,*51
1514635679.24,63692,5.69,72276.0,-9.43,-12.25,-12.07,0,*56
1514635680.49,63693,5.63,72274.8,-9.43,-12.25,-12.11,0,*50
1514635681.71,63694,5.69,72276.5,-9.43,-12.25,-12.21,0,*54
1514635682.93,63695,5.69,72272.5,-9.43,-12.39,-12.21,0,*58
1514635684.17,63696,5.69,72272.0,-9.45,-12.43,-12.29,0,*58
1514635685.44,63697,5.69,72268.8,-9.45,-12.53,-12.39,0,*59
1514635686.71,63698,5.69,72270.8,-9.43,-12.53,-12.35,0,*5C
1514635687.93,63699,5.69,72270.5,-9.43,-12.47,-12.39,0,*54
1514635689.17,63700,5.69,72268.3,-9.43,-12.39,-12.35,0,*50
1514635690.39,63701,5.69,72270.0,-9.43,-12.39,-12.25,0,*50
1514635691.64,63702,5.69,72268.3,-9.43,-12.25,-12.11,0,*59
1514635692.9,63703,5.69,72268.0,-9.45,-12.25,-12.15,0,*5A
1514635694.18,63704,5.69,72268.8,-9.49,-12.15,-12.07,0,*51
1514635695.48,63705,5.69,72270.3,-9.45,-12.15,-12.11,0,*5B
1514635696.73,63706,5.69,72266.3,-9.49,-12.25,-12.11,0,*57
1514635698.03,63707,5.69,72270.0,-9.45,-12.15,-12.07,0,*5E
1514635699.28,63708,5.69,72266.3,-9.49,-12.25,-12.11,0,*59
1514635700.53,63709,5.69,72264.8,-9.45,-12.29,-12.25,0,*5F
1514635701.77,63710,5.69,72270.3,-9.45,-12.39,-12.29,0,*5A
1514635703.02,63711,5.69,72266.8,-9.49,-12.53,-12.39,0,*5A
1514635704.28,63712,5.69,72264.5,-9.49,-12.53,-12.43,0,*54
1514635705.55,63713,5.69,72264.0,-9.45,-12.53,-12.43,0,*59
1514635706.82,63714,5.69,72264.8,-9.45,-12.53,-12.39,0,*53
1514635708.06,63715,5.69,72268.0,-9.45,-12.39,-12.39,0,*5E
1514635709.3,63716,5.69,72268.5,-9.45,-12.39,-12.25,0,*50
1514635710.52,63717,5.69,72270.3,-9.49,-12.39,-12.25,0,*5D
1514635711.75,63718,5.63,72264.0,-9.49,-12.29,-12.25,0,*53
1514635712.98,63719,5.69,72268.0,-9.49,-12.39,-12.29,0,*5F
1514635714.21,63720,5.69,72268.0,-9.49,-12.43,-12.29,0,*58
1514635715.44,63721,5.69,72266.5,-9.49,-12.43,-12.39,0,*58
1514635716.69,63722,5.69,72270.8,-9.49,-12.53,-12.39,0,*5A